Time,Snow Cover Fraction,Confidence
2024-05-01T05:30:00,50,53.53
2024-05-01T06:00:00,50,54.49
2024-05-01T06:30:00,50,53.37
2024-05-01T07:00:00,50,53.01
2024-05-01T07:30:00,50,49.38
2024-05-01T08:00:00,50,55.73
2024-05-01T08:30:00,50,45.03
2024-05-01T09:00:00,50,51.06
2024-05-01T09:30:00,50,64.44
2024-05-01T10:00:00,50,70.1
2024-05-01T10:30:00,50,60.77
2024-05-01T11:00:00,50,68.38
2024-05-01T11:30:00,50,54.07
2024-05-01T12:00:00,50,56.04
2024-05-01T12:30:00,50,68.97
2024-05-01T13:00:00,50,51.48
2024-05-01T13:30:00,50,59.13
2024-05-01T14:00:00,50,74.34
2024-05-01T14:30:00,50,81.55
2024-05-01T15:00:00,50,79.65
2024-05-01T15:30:00,50,43.36
2024-05-01T16:00:00,50,46.78
2024-05-01T16:30:00,50,42.92
2024-05-01T17:00:00,50,56.15
2024-05-01T17:30:00,50,59.49
2024-05-01T18:00:00,50,68.51
2024-05-01T18:30:00,50,76.49
2024-05-02T05:30:00,50,69.35
2024-05-02T06:00:00,50,62.43
2024-05-02T06:30:00,50,66.0
2024-05-02T07:00:00,50,62.4
2024-05-02T07:30:00,50,58.47
2024-05-02T08:00:00,50,58.73
2024-05-02T08:30:00,50,58.24
2024-05-02T09:00:00,50,49.63
2024-05-02T09:30:00,50,54.1
2024-05-02T10:00:00,50,48.84
2024-05-02T10:30:00,50,58.57
2024-05-02T11:00:00,50,50.99
2024-05-02T11:30:00,50,46.34
2024-05-02T12:00:00,50,54.63
2024-05-02T12:30:00,50,45.55
2024-05-02T13:00:00,50,41.35
2024-05-02T13:30:00,50,44.7
2024-05-02T14:00:00,50,37.89
2024-05-02T14:30:00,50,45.41
2024-05-02T15:00:00,50,45.98
2024-05-02T15:30:00,50,49.79
2024-05-02T16:00:00,50,56.73
2024-05-02T16:30:00,50,47.93
2024-05-02T17:00:00,50,48.55
2024-05-02T17:30:00,50,60.27
2024-05-02T18:00:00,50,62.35
2024-05-02T18:30:00,50,87.28
2024-05-03T05:30:00,50,48.02
2024-05-03T06:00:00,50,51.09
2024-05-03T06:30:00,50,55.89
2024-05-03T07:00:00,50,57.37
2024-05-03T07:30:00,50,44.98
2024-05-03T08:00:00,50,54.58
2024-05-03T08:30:00,50,61.99
2024-05-03T09:00:00,50,43.59
2024-05-03T09:30:00,50,40.02
2024-05-03T10:00:00,0,40.92
2024-05-03T10:30:00,50,44.14
2024-05-03T11:00:00,50,43.53
2024-05-03T11:30:00,50,47.76
2024-05-03T12:00:00,50,40.17
2024-05-03T12:30:00,50,48.61
2024-05-03T13:00:00,50,52.6
2024-05-03T13:30:00,50,56.43
2024-05-03T14:00:00,50,56.68
2024-05-03T14:30:00,50,58.15
2024-05-03T15:00:00,50,56.54
2024-05-03T15:30:00,50,56.37
2024-05-03T16:00:00,50,55.11
2024-05-03T16:30:00,50,62.88
2024-05-03T17:00:00,50,69.17
2024-05-03T17:30:00,50,64.14
2024-05-03T18:00:00,50,62.48
2024-05-03T18:30:00,50,77.35
2024-05-04T05:30:00,50,61.63
2024-05-04T06:00:00,50,71.77
2024-05-04T06:30:00,50,46.75
2024-05-04T07:00:00,50,46.98
2024-05-04T07:30:00,50,51.77
2024-05-04T08:00:00,50,45.97
2024-05-04T08:30:00,50,58.39
2024-05-04T09:00:00,50,49.36
2024-05-04T09:30:00,50,46.06
2024-05-04T10:00:00,50,49.48
2024-05-04T10:30:00,50,49.01
2024-05-04T11:00:00,50,43.78
2024-05-04T11:30:00,50,43.67
2024-05-04T12:00:00,50,40.37
2024-05-04T12:30:00,50,55.1
2024-05-04T13:00:00,50,49.93
2024-05-04T13:30:00,50,41.13
2024-05-04T14:00:00,50,47.81
2024-05-04T14:30:00,50,57.47
2024-05-04T15:00:00,50,56.19
2024-05-04T15:30:00,50,50.04
2024-05-04T16:00:00,50,56.02
2024-05-04T16:30:00,50,52.48
2024-05-04T17:00:00,50,70.04
2024-05-04T17:30:00,50,79.34
2024-05-04T18:00:00,50,80.49
2024-05-04T18:30:00,50,81.1
2024-05-05T05:30:00,50,55.0
2024-05-05T06:00:00,50,56.95
2024-05-05T06:30:00,50,48.97
2024-05-05T07:00:00,50,57.86
2024-05-05T07:30:00,50,61.07
2024-05-05T08:30:00,50,42.08
2024-05-05T09:00:00,50,45.27
2024-05-05T09:30:00,100,70.01
2024-05-05T10:00:00,100,45.66
2024-05-05T10:30:00,50,58.66
2024-05-05T11:00:00,50,54.36
2024-05-05T11:30:00,50,41.1
2024-05-05T12:00:00,0,39.93
2024-05-05T12:30:00,50,47.17
2024-05-05T13:00:00,50,44.02
2024-05-05T13:30:00,50,39.07
2024-05-05T14:00:00,0,39.8
2024-05-05T14:30:00,50,51.12
2024-05-05T15:00:00,50,56.88
2024-05-05T15:30:00,50,51.02
2024-05-05T16:00:00,50,49.35
2024-05-05T16:30:00,50,62.87
2024-05-05T17:00:00,50,58.68
2024-05-05T17:30:00,50,67.02
2024-05-05T18:00:00,50,73.53
2024-05-05T18:30:00,50,81.19
2024-05-06T05:30:00,50,60.46
2024-05-06T06:00:00,50,61.75
2024-05-06T06:30:00,50,48.07
2024-05-06T07:00:00,50,51.6
2024-05-06T07:30:00,50,59.27
2024-05-06T08:00:00,50,54.4
2024-05-06T08:30:00,50,52.08
2024-05-06T09:00:00,50,51.02
2024-05-06T09:30:00,50,64.29
2024-05-06T10:00:00,50,52.78
2024-05-06T10:30:00,50,51.73
2024-05-06T11:00:00,50,44.97
2024-05-06T11:30:00,50,45.84
2024-05-06T12:00:00,50,49.83
2024-05-06T12:30:00,50,54.0
2024-05-06T13:00:00,50,48.65
2024-05-06T13:30:00,50,46.52
2024-05-06T14:00:00,50,46.74
2024-05-06T14:30:00,50,52.04
2024-05-06T15:00:00,50,46.76
2024-05-06T15:30:00,50,51.95
2024-05-06T16:00:00,50,56.27
2024-05-06T16:30:00,50,57.77
2024-05-06T17:00:00,50,64.03
2024-05-06T17:30:00,50,72.08
2024-05-06T18:00:00,50,78.92
2024-05-06T18:30:00,50,79.32
2024-05-07T05:30:00,50,52.57
2024-05-07T06:00:00,50,60.6
2024-05-07T06:30:00,50,60.63
2024-05-07T07:00:00,50,78.83
2024-05-07T07:30:00,50,83.25
2024-05-07T08:00:00,50,70.13
2024-05-07T08:30:00,50,73.7
2024-05-07T09:00:00,50,53.32
2024-05-07T09:30:00,50,53.49
2024-05-07T10:00:00,50,55.69
2024-05-07T10:30:00,50,55.33
2024-05-07T11:00:00,50,58.54
2024-05-07T11:30:00,50,49.39
2024-05-07T12:00:00,100,48.9
2024-05-07T12:30:00,50,82.16
2024-05-07T13:00:00,50,55.91
2024-05-07T13:30:00,50,58.55
2024-05-07T14:00:00,50,56.6
2024-05-07T14:30:00,50,74.74
2024-05-07T15:00:00,50,65.05
2024-05-07T15:30:00,50,61.87
2024-05-07T16:00:00,50,57.23
2024-05-07T16:30:00,0,42.34
2024-05-07T17:00:00,50,65.64
2024-05-07T17:30:00,50,50.96
2024-05-07T18:00:00,50,55.97
2024-05-07T18:30:00,50,73.43
2024-05-08T05:30:00,50,73.38
2024-05-08T06:00:00,50,73.39
2024-05-08T06:30:00,50,87.2
2024-05-08T07:00:00,50,81.33
2024-05-08T07:30:00,50,91.09
2024-05-08T08:00:00,50,89.69
2024-05-08T08:30:00,50,83.33
2024-05-08T09:00:00,50,77.23
2024-05-08T09:30:00,50,78.23
2024-05-08T10:00:00,50,76.43
2024-05-08T10:30:00,50,78.31
2024-05-08T11:00:00,50,70.72
2024-05-08T11:30:00,50,72.5
2024-05-08T12:00:00,50,75.03
2024-05-08T12:30:00,50,87.35
2024-05-08T13:00:00,50,66.9
2024-05-08T13:30:00,50,48.17
2024-05-08T14:00:00,50,53.82
2024-05-08T14:30:00,50,86.0
2024-05-08T15:00:00,50,70.23
2024-05-08T15:30:00,50,51.31
2024-05-08T16:00:00,50,44.72
2024-05-08T16:30:00,50,41.95
2024-05-08T17:00:00,50,50.14
2024-05-08T17:30:00,50,49.17
2024-05-08T18:00:00,50,54.29
2024-05-08T18:30:00,50,52.99
2024-05-09T05:30:00,50,72.14
2024-05-09T06:00:00,50,71.59
2024-05-09T06:30:00,50,77.24
2024-05-09T07:00:00,50,79.31
2024-05-09T07:30:00,50,91.63
2024-05-09T08:00:00,50,89.27
2024-05-09T08:30:00,50,76.82
2024-05-09T09:00:00,50,76.39
2024-05-09T09:30:00,50,68.24
2024-05-09T10:00:00,50,72.85
2024-05-09T10:30:00,50,69.65
2024-05-09T11:00:00,50,62.09
2024-05-09T11:30:00,50,52.26
2024-05-09T12:00:00,50,57.63
2024-05-09T12:30:00,50,56.94
2024-05-09T13:00:00,50,46.05
2024-05-09T13:30:00,50,46.43
2024-05-09T14:00:00,50,42.29
2024-05-09T14:30:00,50,50.2
2024-05-09T15:00:00,50,52.17
2024-05-09T15:30:00,50,52.18
2024-05-09T16:00:00,50,52.37
2024-05-09T16:30:00,50,54.82
2024-05-09T17:00:00,50,58.36
2024-05-09T17:30:00,50,48.67
2024-05-09T18:00:00,50,59.22
2024-05-09T18:30:00,100,63.75
2024-05-10T05:30:00,100,83.47
2024-05-10T06:00:00,100,85.27
2024-05-10T06:30:00,100,84.16
2024-05-10T07:00:00,100,82.91
2024-05-10T07:30:00,100,77.53
2024-05-10T08:00:00,100,68.88
2024-05-10T08:30:00,100,51.21
2024-05-10T09:00:00,50,49.92
2024-05-10T09:30:00,50,43.8
2024-05-10T10:00:00,50,45.53
2024-05-10T10:30:00,50,53.5
2024-05-10T11:00:00,50,60.68
2024-05-10T11:30:00,50,47.1
2024-05-10T12:00:00,50,50.7
2024-05-10T12:30:00,50,44.17
2024-05-10T13:00:00,50,51.92
2024-05-10T13:30:00,50,57.71
2024-05-10T14:00:00,50,54.5
2024-05-10T14:30:00,50,72.96
2024-05-10T15:00:00,50,73.2
2024-05-10T15:30:00,50,54.72
2024-05-10T16:00:00,50,49.59
2024-05-10T16:30:00,50,59.9
2024-05-10T17:00:00,50,67.29
2024-05-10T17:30:00,50,73.21
2024-05-10T18:00:00,50,74.88
2024-05-10T18:30:00,50,76.52
2024-05-11T05:30:00,50,76.93
2024-05-11T06:00:00,50,65.36
2024-05-11T06:30:00,50,77.54
2024-05-11T07:00:00,50,84.27
2024-05-11T07:30:00,50,66.8
2024-05-11T08:00:00,50,68.89
2024-05-11T08:30:00,50,62.24
2024-05-11T09:00:00,50,66.88
2024-05-11T09:30:00,50,62.12
2024-05-11T10:00:00,50,65.04
2024-05-11T10:30:00,50,62.73
2024-05-11T11:00:00,50,56.38
2024-05-11T11:30:00,50,61.2
2024-05-11T12:00:00,50,63.05
2024-05-11T12:30:00,50,80.57
2024-05-11T13:00:00,50,62.27
2024-05-11T13:30:00,50,50.9
2024-05-11T14:00:00,50,50.72
2024-05-11T14:30:00,50,89.08
2024-05-11T15:00:00,50,75.01
2024-05-11T15:30:00,50,56.86
2024-05-11T16:00:00,50,48.12
2024-05-11T16:30:00,50,45.9
2024-05-11T17:00:00,50,67.42
2024-05-11T17:30:00,50,60.04
2024-05-11T18:00:00,50,55.05
2024-05-11T18:30:00,50,68.43
2024-05-12T05:30:00,50,58.62
2024-05-12T06:00:00,50,60.09
2024-05-12T06:30:00,50,59.75
2024-05-12T07:00:00,50,59.23
2024-05-12T07:30:00,50,53.53
2024-05-12T08:00:00,50,59.04
2024-05-12T08:30:00,50,54.87
2024-05-12T09:00:00,50,58.21
2024-05-12T09:30:00,50,62.45
2024-05-12T10:00:00,50,70.08
2024-05-12T10:30:00,50,73.26
2024-05-12T11:00:00,50,69.96
2024-05-12T11:30:00,50,57.22
2024-05-12T12:00:00,50,52.02
2024-05-12T12:30:00,50,54.03
2024-05-12T13:00:00,50,37.16
2024-05-12T13:30:00,50,52.43
2024-05-12T14:00:00,50,37.33
2024-05-12T14:30:00,50,52.21
2024-05-12T15:00:00,50,53.89
2024-05-12T15:30:00,50,52.54
2024-05-12T16:00:00,50,55.87
2024-05-12T16:30:00,50,55.61
2024-05-12T17:00:00,50,58.9
2024-05-12T17:30:00,50,67.84
2024-05-12T18:00:00,50,63.88
2024-05-12T18:30:00,50,72.0
2024-05-13T05:30:00,50,72.54
2024-05-13T06:00:00,50,49.36
2024-05-13T06:30:00,50,70.21
2024-05-13T07:00:00,50,80.26
2024-05-13T07:30:00,50,91.86
2024-05-13T08:00:00,50,80.6
2024-05-13T08:30:00,50,65.27
2024-05-13T09:00:00,50,45.46
2024-05-13T09:30:00,50,51.56
2024-05-13T10:00:00,50,52.76
2024-05-13T10:30:00,50,46.69
2024-05-13T11:00:00,50,46.49
2024-05-13T11:30:00,50,47.66
2024-05-13T12:00:00,50,65.42
2024-05-13T12:30:00,50,62.08
2024-05-13T13:00:00,100,45.95
2024-05-13T13:30:00,50,50.7
2024-05-13T14:00:00,50,85.14
2024-05-13T14:30:00,50,56.77
2024-05-13T15:00:00,50,45.57
2024-05-13T15:30:00,50,49.3
2024-05-13T16:00:00,50,42.09
2024-05-13T16:30:00,50,52.96
2024-05-13T17:00:00,50,57.65
2024-05-13T17:30:00,50,47.04
2024-05-13T18:00:00,50,62.22
2024-05-13T18:30:00,50,73.15
2024-05-14T05:30:00,50,49.0
2024-05-14T06:00:00,50,43.51
2024-05-14T06:30:00,50,43.14
2024-05-14T07:00:00,50,47.78
2024-05-14T07:30:00,50,58.8
2024-05-14T08:00:00,50,68.79
2024-05-14T08:30:00,50,74.53
2024-05-14T09:00:00,50,71.45
2024-05-14T09:30:00,50,62.79
2024-05-14T10:00:00,50,52.23
2024-05-14T10:30:00,50,54.92
2024-05-14T11:00:00,50,45.38
2024-05-14T11:30:00,50,43.15
2024-05-14T12:00:00,50,55.33
2024-05-14T12:30:00,50,41.81
2024-05-14T13:00:00,100,54.54
2024-05-14T13:30:00,50,36.83
2024-05-14T14:00:00,50,50.09
2024-05-14T14:30:00,100,38.1
2024-05-14T15:00:00,100,38.5
2024-05-14T15:30:00,100,41.87
2024-05-14T16:00:00,100,40.78
2024-05-14T16:30:00,100,42.68
2024-05-14T17:00:00,100,43.21
2024-05-14T17:30:00,100,43.05
2024-05-14T18:00:00,50,42.57
2024-05-14T18:30:00,50,48.42
2024-05-15T05:30:00,100,46.67
2024-05-15T06:00:00,100,57.53
2024-05-15T06:30:00,100,60.2
2024-05-15T07:00:00,100,65.27
2024-05-15T07:30:00,100,57.02
2024-05-15T08:00:00,100,58.86
2024-05-15T08:30:00,100,62.79
2024-05-15T09:00:00,100,66.72
2024-05-15T09:30:00,100,83.8
2024-05-15T10:00:00,100,86.31
2024-05-15T10:30:00,100,73.79
2024-05-15T11:00:00,100,75.28
2024-05-15T11:30:00,100,80.22
2024-05-15T12:00:00,100,70.27
2024-05-15T12:30:00,100,76.67
2024-05-15T13:00:00,100,79.58
2024-05-15T13:30:00,100,79.94
2024-05-15T14:00:00,100,79.59
2024-05-15T14:30:00,100,75.87
2024-05-15T15:00:00,100,75.17
2024-05-15T15:30:00,100,52.57
2024-05-15T16:00:00,50,52.04
2024-05-15T16:30:00,50,51.25
2024-05-15T17:00:00,100,59.8
2024-05-15T17:30:00,100,59.45
2024-05-15T18:00:00,100,66.42
2024-05-15T18:30:00,100,67.73
2024-05-16T05:30:00,100,64.42
2024-05-16T06:00:00,50,50.2
2024-05-16T06:30:00,100,62.31
2024-05-16T07:00:00,100,73.6
2024-05-16T07:30:00,100,69.01
2024-05-16T08:00:00,50,58.22
2024-05-16T08:30:00,100,59.7
2024-05-16T09:00:00,100,65.46
2024-05-16T09:30:00,100,65.53
2024-05-16T10:00:00,100,71.88
2024-05-16T10:30:00,100,59.65
2024-05-16T11:00:00,100,68.95
2024-05-16T11:30:00,100,54.19
2024-05-16T12:00:00,50,55.25
2024-05-16T12:30:00,100,61.13
2024-05-16T13:00:00,50,66.2
2024-05-16T13:30:00,50,97.04
2024-05-16T14:00:00,50,65.39
2024-05-16T14:30:00,100,67.72
2024-05-16T15:00:00,100,76.59
2024-05-16T15:30:00,100,82.0
2024-05-16T16:00:00,100,85.36
2024-05-16T16:30:00,100,88.14
2024-05-16T17:00:00,100,86.05
2024-05-16T17:30:00,100,78.63
2024-05-16T18:00:00,100,77.97
2024-05-16T18:30:00,100,59.2
2024-05-17T05:30:00,50,98.56
2024-05-17T06:00:00,50,97.7
2024-05-17T06:30:00,50,99.02
2024-05-17T07:00:00,50,99.16
2024-05-17T07:30:00,50,96.08
2024-05-17T08:00:00,50,99.22
2024-05-17T08:30:00,50,99.79
2024-05-17T09:00:00,50,99.93
2024-05-17T09:30:00,50,99.99
2024-05-17T10:00:00,50,100.0
2024-05-17T10:30:00,50,100.0
2024-05-17T11:00:00,50,100.0
2024-05-17T11:30:00,50,100.0
2024-05-17T12:00:00,50,100.0
2024-05-17T12:30:00,50,100.0
2024-05-17T13:00:00,50,100.0
2024-05-17T13:30:00,50,99.99
2024-05-17T14:00:00,50,100.0
2024-05-17T14:30:00,50,99.45
2024-05-17T15:00:00,50,88.48
2024-05-17T15:30:00,50,82.51
2024-05-17T16:00:00,100,98.2
2024-05-17T16:30:00,100,91.35
2024-05-17T17:00:00,100,62.52
2024-05-17T17:30:00,50,41.47
2024-05-17T18:00:00,0,79.75
2024-05-17T18:30:00,0,64.86
2024-05-18T05:30:00,50,72.28
2024-05-18T06:00:00,50,56.57
2024-05-18T06:30:00,50,83.98
2024-05-18T07:00:00,50,67.36
2024-05-18T07:30:00,50,61.29
2024-05-18T08:00:00,50,52.57
2024-05-18T08:30:00,50,98.09
2024-05-18T09:00:00,50,72.33
2024-05-18T09:30:00,50,92.15
2024-05-18T10:00:00,50,95.37
2024-05-18T10:30:00,50,98.46
2024-05-18T11:00:00,50,97.44
2024-05-18T11:30:00,50,98.71
2024-05-18T12:00:00,50,98.91
2024-05-18T12:30:00,50,99.09
2024-05-18T13:00:00,50,98.79
2024-05-18T13:30:00,50,99.74
2024-05-18T14:00:00,50,87.04
2024-05-18T14:30:00,50,98.4
2024-05-18T15:00:00,50,87.22
2024-05-18T15:30:00,50,88.95
2024-05-18T16:00:00,50,91.05
2024-05-18T16:30:00,50,79.55
2024-05-20T06:30:00,50,93.27
2024-05-20T07:00:00,50,99.58
2024-05-20T07:30:00,50,97.25
2024-05-20T08:00:00,50,99.4
2024-05-20T08:30:00,50,99.33
2024-05-20T09:00:00,50,90.63
2024-05-20T09:30:00,50,99.92
2024-05-20T10:00:00,50,98.1
2024-05-20T10:30:00,50,98.88
2024-05-20T11:00:00,50,99.8
2024-05-20T11:30:00,50,99.86
2024-05-20T12:00:00,50,99.82
2024-05-20T12:30:00,50,99.92
2024-05-20T13:00:00,50,99.99
2024-05-20T13:30:00,50,99.77
2024-05-20T14:00:00,50,99.85
2024-05-20T14:30:00,50,99.97
2024-05-20T15:00:00,50,99.67
2024-05-20T15:30:00,50,99.95
2024-05-20T16:00:00,50,100.0
2024-05-20T16:30:00,50,100.0
2024-05-20T17:00:00,50,99.99
2024-05-20T17:30:00,50,99.96
2024-05-20T18:00:00,50,99.9
2024-05-20T18:30:00,50,99.87
2024-05-21T05:30:00,50,99.62
2024-05-21T06:00:00,50,99.71
2024-05-21T06:30:00,50,99.67
2024-05-21T07:00:00,50,98.6
2024-05-21T07:30:00,50,98.65
2024-05-21T08:00:00,50,91.17
2024-05-21T08:30:00,50,98.53
2024-05-21T09:00:00,50,95.2
2024-05-21T09:30:00,50,97.16
2024-05-21T10:00:00,50,98.48
2024-05-21T10:30:00,50,99.23
2024-05-21T11:00:00,50,99.59
2024-05-21T11:30:00,50,99.56
2024-05-21T12:00:00,50,99.46
2024-05-21T12:30:00,50,99.97
2024-05-21T13:00:00,50,99.99
2024-05-21T13:30:00,50,100.0
2024-05-21T14:00:00,50,100.0
2024-05-21T14:30:00,50,100.0
2024-05-21T15:00:00,50,99.91
2024-05-21T15:30:00,50,100.0
2024-05-21T16:00:00,50,100.0
2024-05-21T16:30:00,50,99.98
2024-05-21T17:00:00,50,99.48
2024-05-21T17:30:00,50,99.79
2024-05-21T18:00:00,50,99.85
2024-05-21T18:30:00,50,99.36
2024-05-22T05:30:00,50,99.83
2024-05-22T06:00:00,50,99.83
2024-05-22T06:30:00,50,99.78
2024-05-22T07:00:00,50,99.26
2024-05-22T07:30:00,50,99.46
2024-05-22T08:00:00,50,99.49
2024-05-22T08:30:00,50,97.17
2024-05-22T09:00:00,50,96.25
2024-05-22T09:30:00,50,98.36
2024-05-22T10:00:00,50,99.17
2024-05-22T10:30:00,50,98.49
2024-05-22T11:00:00,50,99.6
2024-05-22T11:30:00,50,99.43
2024-05-22T12:00:00,50,99.23
2024-05-22T12:30:00,50,99.62
2024-05-22T13:00:00,50,99.8
2024-05-22T13:30:00,50,99.47
2024-05-22T14:00:00,50,100.0
2024-05-22T14:30:00,50,99.96
2024-05-22T15:00:00,50,99.81
2024-05-22T15:30:00,50,99.24
2024-05-22T16:00:00,50,99.64
2024-05-22T16:30:00,50,99.74
2024-05-22T17:00:00,50,99.97
2024-05-22T17:30:00,50,99.63
2024-05-22T18:00:00,50,99.55
2024-05-22T18:30:00,50,99.44
2024-05-23T05:30:00,50,99.77
2024-05-23T06:00:00,50,99.76
2024-05-23T06:30:00,50,99.52
2024-05-23T07:00:00,50,98.73
2024-05-23T07:30:00,50,95.48
2024-05-23T08:00:00,50,96.82
2024-05-23T08:30:00,50,92.9
2024-05-23T09:00:00,50,91.49
2024-05-23T09:30:00,50,96.16
2024-05-23T10:00:00,50,96.44
2024-05-23T10:30:00,50,98.98
2024-05-23T11:00:00,50,98.72
2024-05-23T11:30:00,50,98.79
2024-05-23T12:00:00,50,98.9
2024-05-23T12:30:00,50,99.97
2024-05-23T13:00:00,50,99.94
2024-05-23T13:30:00,50,99.92
2024-05-23T14:00:00,50,99.88
2024-05-23T14:30:00,50,99.99
2024-05-23T15:00:00,50,100.0
2024-05-23T15:30:00,50,99.99
2024-05-23T16:00:00,50,100.0
2024-05-23T16:30:00,50,99.98
2024-05-23T17:00:00,50,99.91
2024-05-23T17:30:00,50,99.73
2024-05-23T18:00:00,50,99.41
2024-05-23T18:30:00,50,99.7
2024-05-24T05:30:00,50,99.9
2024-05-24T06:00:00,50,99.9
2024-05-24T06:30:00,50,98.36
2024-05-24T07:00:00,50,99.36
2024-05-24T07:30:00,50,99.15
2024-05-24T08:00:00,50,99.18
2024-05-24T08:30:00,50,99.8
2024-05-24T09:00:00,50,99.13
2024-05-24T09:30:00,50,98.18
2024-05-24T10:00:00,50,98.69
2024-05-24T10:30:00,50,98.82
2024-05-24T11:00:00,50,99.87
2024-05-24T11:30:00,50,99.92
2024-05-24T12:00:00,50,99.99
2024-05-24T12:30:00,50,99.98
2024-05-24T13:00:00,50,99.9
2024-05-24T13:30:00,50,99.99
2024-05-24T14:00:00,50,100.0
2024-05-24T14:30:00,50,100.0
2024-05-24T15:00:00,50,100.0
2024-05-24T15:30:00,50,99.98
2024-05-24T16:00:00,50,99.92
2024-05-24T16:30:00,50,99.62
2024-05-24T17:00:00,50,99.87
2024-05-24T17:30:00,50,99.91
2024-05-24T18:00:00,50,99.68
2024-05-24T18:30:00,50,95.89
2024-05-25T05:30:00,50,99.73
2024-05-25T06:00:00,50,99.76
2024-05-25T06:30:00,50,99.63
2024-05-25T07:00:00,50,99.62
2024-05-25T07:30:00,50,99.31
2024-05-25T08:00:00,50,98.76
2024-05-25T08:30:00,50,98.67
2024-05-25T09:00:00,50,95.1
2024-05-25T09:30:00,50,97.15
2024-05-25T10:00:00,50,98.46
2024-05-25T10:30:00,50,99.62
2024-05-25T11:00:00,50,99.89
2024-05-25T11:30:00,50,99.94
2024-05-25T12:00:00,50,99.98
2024-05-25T12:30:00,50,99.99
2024-05-25T13:00:00,50,100.0
2024-05-25T13:30:00,50,100.0
2024-05-25T14:00:00,50,100.0
2024-05-25T14:30:00,50,100.0
2024-05-25T15:00:00,50,100.0
2024-05-25T15:30:00,50,100.0
2024-05-25T16:00:00,50,100.0
2024-05-25T16:30:00,50,100.0
2024-05-25T17:00:00,50,99.99
2024-05-25T17:30:00,50,99.91
2024-05-25T18:00:00,50,99.07
2024-05-25T18:30:00,50,91.94
2024-05-26T05:30:00,50,99.95
2024-05-26T06:30:00,50,99.89
2024-05-26T07:00:00,50,99.72
2024-05-26T07:30:00,50,99.5
2024-05-26T08:00:00,50,99.5
2024-05-26T08:30:00,50,98.08
2024-05-26T09:00:00,50,95.78
2024-05-26T09:30:00,50,96.84
2024-05-26T10:00:00,50,98.19
2024-05-26T10:30:00,50,99.48
2024-05-26T11:00:00,50,99.85
2024-05-26T11:30:00,50,99.95
2024-05-26T12:00:00,50,99.99
2024-05-26T12:30:00,50,100.0
2024-05-26T13:00:00,50,99.95
2024-05-26T13:30:00,50,99.99
2024-05-26T14:00:00,50,100.0
2024-05-26T14:30:00,50,100.0
2024-05-26T15:00:00,50,100.0
2024-05-26T15:30:00,50,99.99
2024-05-26T16:00:00,50,99.98
2024-05-26T16:30:00,50,100.0
2024-05-26T17:00:00,50,98.16
2024-05-26T17:30:00,50,99.43
2024-05-26T18:00:00,50,99.91
2024-05-26T18:30:00,50,94.92
2024-05-27T05:30:00,50,99.92
2024-05-27T06:00:00,50,99.91
2024-05-27T06:30:00,50,99.6
2024-05-27T07:00:00,50,99.31
2024-05-27T07:30:00,50,98.61
2024-05-27T08:00:00,50,97.82
2024-05-27T08:30:00,50,95.57
2024-05-27T09:00:00,50,90.97
2024-05-27T09:30:00,50,97.45
2024-05-27T10:00:00,50,99.3
2024-05-27T10:30:00,50,99.51
2024-05-27T11:00:00,50,99.45
2024-05-27T11:30:00,50,99.78
2024-05-27T12:00:00,50,99.65
2024-05-27T12:30:00,50,99.96
2024-05-27T13:00:00,50,99.98
2024-05-27T13:30:00,50,99.79
2024-05-27T14:00:00,50,97.41
2024-05-27T14:30:00,50,99.61
2024-05-27T15:00:00,50,98.25
2024-05-27T15:30:00,50,96.53
2024-05-27T16:00:00,50,96.98
2024-05-27T16:30:00,50,91.84
2024-05-27T17:00:00,50,92.4
2024-05-27T17:30:00,50,71.77
2024-05-27T18:00:00,50,74.96
2024-05-27T18:30:00,0,85.95
2024-05-28T05:30:00,50,93.44
2024-05-28T06:00:00,50,96.15
2024-05-28T06:30:00,50,93.22
2024-05-28T07:00:00,50,82.63
2024-05-28T07:30:00,50,60.96
2024-05-28T08:00:00,50,90.36
2024-05-28T08:30:00,50,90.87
2024-05-28T09:00:00,50,97.43
2024-05-28T09:30:00,50,83.68
2024-05-28T10:00:00,50,98.63
2024-05-28T10:30:00,50,98.57
2024-05-28T11:00:00,50,99.37
2024-05-28T11:30:00,50,99.74
2024-05-28T12:00:00,50,97.96
2024-05-28T12:30:00,0,97.34
2024-05-28T13:00:00,50,78.31
2024-05-28T13:30:00,50,97.9
2024-05-28T14:00:00,50,97.53
2024-05-28T14:30:00,50,98.69
2024-05-28T15:00:00,50,98.05
2024-05-28T15:30:00,50,87.17
2024-05-28T16:00:00,50,99.35
2024-05-28T16:30:00,50,99.78
2024-05-28T17:00:00,50,99.78
2024-05-28T17:30:00,50,99.89
2024-05-28T18:00:00,50,99.65
2024-05-28T18:30:00,50,94.13
2024-05-29T05:30:00,50,89.96
2024-05-29T06:00:00,50,99.32
2024-05-29T06:30:00,50,99.62
2024-05-29T07:00:00,50,99.94
2024-05-29T07:30:00,50,99.95
2024-05-29T08:00:00,50,99.94
2024-05-29T08:30:00,50,99.89
2024-05-29T10:30:00,50,99.84
2024-05-29T11:00:00,50,99.85
2024-05-29T11:30:00,50,99.88
2024-05-29T12:00:00,50,99.81
2024-05-29T12:30:00,50,99.7
2024-05-29T13:00:00,50,99.79
2024-05-29T13:30:00,50,99.99
2024-05-29T14:00:00,50,100.0
2024-05-29T14:30:00,50,99.88
2024-05-29T15:00:00,50,100.0
2024-05-29T15:30:00,50,100.0
2024-05-29T16:00:00,50,99.98
2024-05-29T16:30:00,50,99.95
2024-05-29T17:00:00,50,99.71
2024-05-29T17:30:00,50,99.37
2024-05-29T18:00:00,50,95.24
2024-05-29T18:30:00,0,60.42
2024-05-30T05:30:00,50,99.94
2024-05-30T06:00:00,50,99.68
2024-05-30T06:30:00,50,99.48
2024-05-30T07:00:00,50,98.05
2024-05-30T07:30:00,50,95.6
2024-05-30T08:00:00,50,92.89
2024-05-30T08:30:00,50,95.94
2024-05-30T09:00:00,50,86.19
2024-05-30T09:30:00,50,90.43
2024-05-30T10:00:00,50,93.76
2024-05-30T10:30:00,50,99.48
2024-05-30T11:00:00,50,99.51
2024-05-30T11:30:00,50,99.89
2024-05-30T12:00:00,50,99.97
2024-05-30T12:30:00,50,99.93
2024-05-30T13:00:00,50,99.96
2024-05-30T13:30:00,50,99.99
2024-05-30T14:00:00,50,99.99
2024-05-30T14:30:00,50,99.99
2024-05-30T15:00:00,50,99.99
2024-05-30T15:30:00,50,99.99
2024-05-30T16:00:00,50,99.97
2024-05-30T16:30:00,50,99.88
2024-05-30T17:00:00,50,99.84
2024-05-30T17:30:00,50,98.49
2024-05-30T18:00:00,50,96.97
2024-05-30T18:30:00,50,98.41
2024-05-31T05:30:00,50,99.85
2024-05-31T06:00:00,50,99.85
2024-05-31T06:30:00,50,99.31
2024-05-31T07:00:00,50,98.05
2024-05-31T07:30:00,50,95.05
2024-05-31T08:00:00,50,95.83
2024-05-31T08:30:00,50,93.67
2024-05-31T09:00:00,50,88.18
2024-05-31T09:30:00,50,89.51
2024-05-31T10:00:00,50,91.05
2024-05-31T10:30:00,50,99.59
2024-05-31T11:00:00,50,99.94
2024-05-31T11:30:00,50,99.95
2024-05-31T12:00:00,50,99.87
2024-05-31T12:30:00,50,99.94
2024-05-31T13:00:00,50,99.96
2024-05-31T13:30:00,50,99.86
2024-05-31T14:00:00,50,99.94
2024-05-31T14:30:00,50,99.96
2024-05-31T15:00:00,50,99.5
2024-05-31T15:30:00,50,91.15
2024-05-31T16:00:00,50,98.1
2024-05-31T16:30:00,50,97.31
2024-05-31T17:00:00,50,99.92
2024-05-31T17:30:00,50,99.64
2024-05-31T18:00:00,50,98.93
2024-05-31T18:30:00,0,72.58
2024-06-01T07:30:00,50,94.09
2024-06-01T08:00:00,50,98.17
2024-06-01T05:30:00,50,99.86
2024-06-01T06:00:00,50,99.51
2024-06-01T06:30:00,50,92.14
2024-06-01T07:00:00,50,97.76